This is the latest recevied weather packets stored in our database for station/object KC8YYF. If no packets are shown the sender has not sent any weather packets the latest 10 day(s).
| Time | Temp. | Humidity | Pressure | Rain* | Wind** | Luminosity | Snow |
|---|---|---|---|---|---|---|---|
| 1777602472 | 6.11° C | 80% | 1016.2 hPa | 0 mm | - | 0 W/m² | - |
| 1777602168 | 6.11° C | 81% | 1016.1 hPa | 0 mm | - | 0 W/m² | - |
| 1777601863 | 6.11° C | 77% | 1016.1 hPa | 0 mm | - | 0 W/m² | - |
| 1777601559 | 6.11° C | 78% | 1016.3 hPa | 0 mm | - | 0 W/m² | - |
| 1777600952 | 6.11° C | 81% | 1016.1 hPa | 0 mm | - | 0 W/m² | - |
| 1777586378 | 12.22° C | 59% | 1015.2 hPa | 0 mm | - | 279 W/m² | - |
| 1777585776 | 10.56° C | 63% | 1015.3 hPa | 0 mm | - | 42 W/m² | - |
| 1777585471 | 11.11° C | 65% | 1015.2 hPa | 0 mm | - | 38 W/m² | - |
| 1777584863 | 11.67° C | 62% | 1015.3 hPa | 0 mm | - | 56 W/m² | - |
| 1777583951 | 11.11° C | 63% | 1015 hPa | 0 mm | - | 91 W/m² | - |
| 1777583647 | 11.67° C | 65% | 1015.2 hPa | 0 mm | - | 286 W/m² | - |
| 1777583346 | 10.56° C | 64% | 1015 hPa | 0 mm | - | 110 W/m² | - |
| 1777582737 | 11.67° C | 63% | 1015.2 hPa | 0 mm | - | 111 W/m² | - |
| 1777582433 | 12.22° C | 64% | 1015.2 hPa | 0 mm | - | 459 W/m² | - |
| 1777582133 | 10.56° C | 66% | 1015.4 hPa | 0 mm | - | 575 W/m² | - |
| 1777581826 | 10.56° C | 64% | 1015.3 hPa | 0 mm | - | 65 W/m² | - |
| 1777580921 | 8.89° C | 74% | 1015.4 hPa | 0 mm | - | 135 W/m² | - |
| 1777580312 | 8.33° C | 85% | 1015.4 hPa | 0.51 mm | - | 98 W/m² | - |
| 1777579704 | 8.33° C | 80% | 1015.6 hPa | 0 mm | - | 57 W/m² | - |
| 1777578488 | 8.33° C | 79% | 1015.6 hPa | 0 mm | - | 39 W/m² | - |
| 1777576055 | 10° C | 68% | 1015.4 hPa | 0 mm | - | 35 W/m² | - |
| 1777573928 | 11.11° C | 63% | 1015.2 hPa | 0 mm | - | 259 W/m² | - |
| 1777573015 | 11.67° C | 65% | 1015.4 hPa | 0 mm | - | 686 W/m² | - |
| 1777571191 | 10° C | 74% | 1015.5 hPa | 0 mm | - | 246 W/m² | - |
| 1777570582 | 9.44° C | 80% | 1015.7 hPa | 0 mm | - | 269 W/m² | - |
* Rain latest hour (hover to see other rain measurements)
** Current wind speed in m/s (hover to see current wind gust speed)